Main page
METAR-TAF:

METAR-TAF

Airports :

Perry Lefors Field

Pampa, Texas, United States

latitude: 35-36-46N, longitude: 100-59-46W, elevation: 3244 ft

Current weather observation

The report was made 24 minutes ago, at 19:55 UTC
Wind 8 mph from the North/Northeast
Temperature 70°F
Humidity 21%
Pressure 30.39 in. Hg
Visibility: 5 miles
Clear sky
haze

METAR: KPPA 201955Z AUTO 02007KT 5SM HZ CLR 21/M02 A3039 RMK AO2 T02131017

Time: 15:19 (20:19 UTC)


TAF: missing

Weather observations and forecasts of more than 4000 airports (METAR and TAF reports).

The available stations are represented by yellow and red dots on the map.

Hover mouse over dot to see the name of the station.

Then click to see weather observations and forecasts.

To change the map : click on the green buttons with a black cross to zoom in, on the green button with a dash to zoom out, or on the green arrows for adjacent maps.


METAR-TAF: